Regional Weather Roundup
Issued by NWS

Home | Current Version | Previous Version | Graphics & Text | Print | Product List | Glossary On
Versions: 1 2 3 4 5 6 7 8 9 10 11 12 13 14 15 16 17 18 19 20 21 22 23 24 25 26 27 28 29 30 31 32 33 34 35 36 37 38 39 40 41 42 43 44 45 46 47 48 49 50
000
ASUS43 KMPX 030110
RWRMN
WEATHER ROUNDUP FOR MINNESOTA
NATIONAL WEATHER SERVICE TWIN CITIES/CHANHASSEN MN
800 PM CDT SUN AUG 02 2015


NOTE: "FAIR" INDICATES FEW OR NO CLOUDS BELOW 12,000 FEET WITH NO
SIGNIFICANT WEATHER AND/OR OBSTRUCTIONS TO VISIBILITY. N/A MEANS
CURRENT SKY AND/OR WEATHER CONDITIONS ARE NOT AVAILABLE.

MNZ060>063-068>070-030200-
   Twin Cities Metro

CITY           SKY/WX    TMP DP  RH WIND       PRES   REMARKS
TWIN CITIES    PTCLDY    78  54  43 NW16G25   29.75R
ST PAUL        CLEAR     77  55  46 NW18      29.74R
CRYSTAL        CLEAR     78  54  43 NW15G30   29.75R
BLAINE         CLEAR     77  55  47 NW21G26   29.75R
LAKEVILLE      CLEAR     73  55  53 NW9       29.76R
EDEN PRAIRIE   CLEAR     78  54  43 NW14G25   29.75R
SOUTH ST PAUL  CLEAR     78  53  41 NW14G22   29.74R
LAKE ELMO      FAIR      75  57  53 NW10      29.75R
$$
MNZ001>005-007-008-013>017-022>024-027-028-030200-
   Northwest Minnesota

CITY           SKY/WX    TMP DP  RH WIND       PRES   REMARKS
BEMIDJI        CLEAR     69  43  39 NW16G23   29.80S
HALLOCK        CLEAR     72  45  37 N12       29.80R
ROSEAU         CLEAR     66  48  52 NW10G16   29.79S
WARROAD        CLEAR     68  46  45 NW12      29.79R
THIEF RVR FALL CLEAR     70  48  46 NW7       29.82R
CROOKSTON      CLEAR     72  50  46 NW12      29.82S
FOSSTON        CLEAR     72  46  40 CALM      29.83S
DETROIT LAKES  CLEAR     70  48  46 NW7       29.86R
MOORHEAD       CLEAR     70  54  56 NW5       29.85R
PARK RAPIDS    CLEAR     70  45  40 NW14G21   29.82R
MAHNOMEN       FAIR      68  54  61 W5        29.83S
$$
MNZ006-009>011-018-025>026-030200-
   North Central Minnesota

CITY           SKY/WX    TMP DP  RH WIND       PRES   REMARKS
BAUDETTE       CLOUDY    67  46  47 NW14G21   29.76R
FLAG ISLAND    CLOUDY    68  48  49 NW16G22   29.75S
INTL FALLS     CLOUDY    66  45  46 NW8       29.73R
WASKISH        CLEAR     70  46  43 W15G26    29.78R
BIG FORK       CLOUDY    66  48  52 CALM      29.77R
LONGVILLE      CLEAR     70  45  40 NW10G17   29.80R
GRAND RAPIDS   CLEAR     70  45  40 NW17G23   29.77R
CRANE LAKE     CLOUDY    64  48  55 N7        29.74R
ORR            CLEAR     66  43  42 NW10G16   29.71R
COOK           CLOUDY    68  45  42 NW8       29.74R
WALKER         FAIR      67  46  47 NW9       29.80S
$$
MNZ012-019>021-037-030200-
   Northeast Minnesota

CITY           SKY/WX    TMP DP  RH WIND       PRES   REMARKS
DULUTH         PTCLDY    69  46  43 NW9       29.73R
ELY            CLOUDY    66  41  39 NW13G18   29.72R
HIBBING        PTCLDY    67  47  48 W9        29.74R
EVELETH        MOCLDY    70  45  40 W9G18     29.75R
DULUTH HARBOR  CLEAR     73  50  43 NW13      29.72R
TWO HARBORS    CLEAR     72  48  43 NW5       29.69S
SILVER BAY     CLEAR     70  45  40 W5        29.68R
GRAND MARAIS     N/A     69  45  41 W5        29.63R
G MARAIS ARPRT PTCLDY    63  43  48 W5        29.68S
$$
MNZ029>031-032-039>041-046>048-054>057-064-030200-
   West Central Minnesota

CITY           SKY/WX    TMP DP  RH WIND       PRES   REMARKS
FERGUS FALLS   CLEAR     72  50  46 NW10      29.84R
WHEATON        CLEAR     72  52  49 NW7       29.87R
MORRIS         CLEAR     73  55  53 NW9       29.84R
ALEXANDRIA     CLEAR     72  51  47 NW14G20   29.85R
ELBOW LAKE     FAIR      72  53  51 NW14      29.84S
WADENA         CLEAR     70  48  46 NW12      29.83R
GLENWOOD       CLEAR     72  52  49 NW13G20   29.84S
APPLETON       CLEAR     75  54  46 N10       29.84R
BENSON         CLEAR     73  55  53 N7        29.83S
ORTONVILLE     CLEAR     73  57  56 N8        29.85R
MADISON        CLEAR     73  57  56 NW7       29.85R
WILLMAR        FAIR      73  57  56 NW9       29.84R
$$
MNZ033>034-036-042>043-049>051-058-059-030200-
   Central Minnesota

CITY           SKY/WX    TMP DP  RH WIND       PRES   REMARKS
ST CLOUD       CLEAR     72  50  45 NW13      29.79R
SAUK CENTRE    FAIR      72  53  50 NW12      29.82S
PAYNESVILLE    CLEAR     69  52  54 W6        29.82S
AITKIN         CLEAR     70  46  43 NW5       29.77R
PINE RIVER     CLEAR     72  48  43 NW7G18    29.84R
BRAINERD       CLEAR     72  45  37 NW12      29.80R
STAPLES        CLEAR     70  46  43 NW10      29.82R
LONG PRAIRIE   FAIR      70  52  52 W7        29.83R HAZE
LITTLE FALLS   CLEAR     72  46  40 NW6       29.80R
LITCHFIELD     CLEAR     73  54  49 NW10G18   29.82R
BUFFALO        CLEAR     74  51  44 W9        29.80R
$$
MNZ037-044-045-052-053-030200-
   East Central Minnesota

CITY           SKY/WX    TMP DP  RH WIND       PRES   REMARKS
PRINCETON      CLEAR     73  52  46 W13G18    29.78R
MORA           CLEAR     70  50  49 NW7       29.78R
CAMBRIDGE      CLEAR     75  55  50 NW8       29.75R
RUSH CITY      CLEAR     72  52  48 NW8       29.76R
MOOSE LAKE     CLEAR     68  45  42 NW7       29.74S
HINCKLEY       FAIR      70  50  49 NW9       29.76R
CLOQUET        CLEAR     70  43  37 W8        29.75R
MCGREGOR       CLEAR     70  46  43 NW7       29.77S
$$
MNZ071>073-080-081-089-090-097-098-030200-
   Southwest Minnesota

CITY           SKY/WX    TMP DP  RH WIND       PRES   REMARKS
MONTEVIDEO     CLEAR     73  57  56 N8        29.85R
GRANITE FALLS  CLEAR     73  59  60 NW7       29.85R
CANBY          CLEAR     74  59  60 NW5       29.87R
MARSHALL       CLEAR     73  55  53 NW7       29.87R
REDWOOD FALLS  CLEAR     76  57  51 NW8       29.82R
OLIVIA         CLEAR     72  55  56 NW9       29.82R
PIPESTONE      CLEAR     75  61  60 NE6       29.88R
WINDOM         CLEAR     73  57  56 NW10      29.85R
WORTHINGTON    CLEAR     73  59  60 N10       29.87R
JACKSON        CLEAR     73  61  64 NW9G16    29.86R
TRACY          CLEAR     73  57  56 N8        29.86R
SLAYTON        CLEAR     73  59  61 N7        29.89R
$$
MNZ065>067-074>077-082>085-091>093-030200-
   South Central Minnesota

CITY           SKY/WX    TMP DP  RH WIND       PRES   REMARKS
MANKATO        PTCLDY    75  57  53 NW12      29.79R
NEW ULM        CLEAR     73  55  53 NW8       29.81R
ST JAMES       CLEAR     75  57  53 NW8       29.83R
FAIRMONT       CLEAR     75  55  50 NW10      29.82R
GLENCOE        CLEAR     74  57  54 NW10G16   29.80R
FARIBAULT      CLEAR     73  59  60 NW7       29.78R
OWATONNA       CLEAR     73  59  60 NW8       29.78R
WASECA         CLEAR     72  59  64 NW7       29.80R
ALBERT LEA     CLEAR     75  61  60 NW7       29.78R
$$
MNZ078>079-086>088-094>096-030200-
   Southeast Minnesota

CITY           SKY/WX    TMP DP  RH WIND       PRES   REMARKS
ROCHESTER      CLEAR     75  60  59 NW15      29.76R
RED WING       CLEAR     79  57  47 NW7       29.72R
STANTON        CLEAR     76  56  51 NW9       29.75R
DODGE CENTER   CLEAR     73  59  60 NW10      29.77R
WINONA         PTCLDY    79  63  57 NW8       29.70R
AUSTIN         CLEAR     79  61  53 NW12G17   29.76R
PRESTON        PTCLDY    76  62  61 NW10      29.75R
$$
ABBREVIATIONS USED IN REMARKS
   TC - TEMPERATURES IN CELSIUS
  WCI - WIND CHILL INDEX
   HX - HEAT INDEX
  VSB - VISIBILITY
$$


USA.gov is the U.S. government's official web portal to all federal, state and local government web resources and services.